Skip Page Navigation
NASA JPL Caltech
NASA Logo - Jet Propulsion Laboratory + View the NASA Portal
+ Center for Near-Earth Object Studies
JPL Home Earth Solar System Stars & Galaxies Technology
JPL Solar System Dynamics
BODIES ORBITS EPHEMERIDES TOOLS PHYSICAL DATA DISCOVERY FAQ SITE MAP
IMPORTANT: The SSD Announcement email list is now available. Major changes are coming in the near future, including possible hostname and/or URL changes. To be notified of such changes, subscribe to this email list.

Please visit this page for more details.


JPL Small-Body Database Browser
Search: [ help ]  
324583 (2006 XZ)
Classification: Main-belt Asteroid          SPK-ID: 2324583
Ephemeris | Orbit Diagram | Orbital Elements | Mission Design | Physical Parameters | Discovery Circumstances ]

[ show orbit diagram ]
Orbital Elements at Epoch 2458600.5 (2019-Apr-27.0) TDB
Reference: JPL 16 (heliocentric ecliptic J2000)
 Element Value Uncertainty (1-sigma)   Units 
e .1417441364874483 3.8521e-08  
a 2.424710846005292 2.2958e-08 au
q 2.081022300906522 9.4265e-08 au
i 8.28665417722334 5.1184e-06 deg
node 76.4716107171138 3.957e-05 deg
peri 207.5431122784041 4.6612e-05 deg
M 232.7402483887915 2.6978e-05 deg
tp 2459088.002592976868
(2020-Aug-26.50259298)
0.00010592 TDB
period 1379.076504941215
3.78
1.9586e-05
5.362e-08
d
yr
n .2610442558553672 3.7075e-09 deg/d
Q 2.768399391104063 2.6212e-08 au
  Orbit Determination Parameters
   # obs. used (total)      261  
   data-arc span      6583 days (18.02 yr)  
   first obs. used      2001-05-18  
   last obs. used      2019-05-27  
   planetary ephem.      DE431  
   SB-pert. ephem.      SB431-N16  
   condition code      0  
   norm. resid. RMS      .59065  
   source      ORB  
   producer      Otto Matic  
   solution date      2019-Sep-24 06:13:22  

Additional Information
 Earth MOID = 1.0679 au 
 Jupiter MOID = 2.36417 au 
 T_jup = 3.483 
[ hide covariance matrix ]
Orbital Elements at Epoch 2457471.5 (2016-Mar-24.0) TDB
Reference: JPL 16 (heliocentric ecliptic J2000)
 Element Value Uncertainty (1-sigma)   Units 
e .1412542824934429 3.8559e-08  
q 2.082629877392419 9.4327e-08 au
tp 2457708.016543254004
(2016-Nov-15.51654325)
0.00010003 TDB
node 76.48030739722212 3.9576e-05 deg
peri 207.3669632357377 4.6652e-05 deg
i 8.285529974426163 5.1178e-06 deg
  Orbit Determination Parameters
   # obs. used (total)      261  
   data-arc span      6583 days (18.02 yr)  
   first obs. used      2001-05-18  
   last obs. used      2019-05-27  
   planetary ephem.      DE431  
   SB-pert. ephem.      SB431-N16  
   condition code      0  
   norm. resid. RMS      .59065  
   source      ORB  
   producer      Otto Matic  
   solution date      2019-Sep-24 06:13:22  

Additional Information
 Jupiter MOID = 2.36417 au 
 T_jup = 3.483 
Orbit Covariance (6×6)
  e q tp node peri i
e 1.486833815764508E-15 -3.557092435087428E-15 -5.142753344629753E-13 -1.554032095099202E-14 -1.337446935427335E-13 2.193669598342013E-15
q -3.557092435087428E-15 8.897669346798386E-15 1.710270817384905E-12 3.469394524046334E-14 4.211775333238415E-13 -4.512386246123697E-15
tp -5.142753344629753E-13 1.710270817384905E-12 1.000531068303475E-8 -1.183761987730196E-11 2.509504726584406E-9 -8.936794300912003E-12
node -1.554032095099202E-14 3.469394524046334E-14 -1.183761987730196E-11 1.566251373359399E-9 -1.552125903527658E-9 -6.905445321295823E-11
peri -1.337446935427335E-13 4.211775333238415E-13 2.509504726584406E-9 -1.552125903527658E-9 2.176373168701043E-9 6.615492261750063E-11
i 2.193669598342013E-15 -4.512386246123697E-15 -8.936794300912003E-12 -6.905445321295823E-11 6.615492261750063E-11 2.619191660498076E-11

Ephemeris | Orbit Diagram | Orbital Elements | Mission Design | Physical Parameters | Discovery Circumstances ]

Physical Parameter Table
Parameter Symbol Value Units Sigma Reference Notes
absolute magnitude H 16.6   n/a MPO434050  

324583 (2006 XZ)          Discovered 2006-Dec-09 by Yeung, W. K. Y. at 7300
Reference: 20120406/Numbers.arcLast Updated: 2012-04-09

Alternate Designations
 2006 XZ = 2001 KC53 
Ephemeris | Orbit Diagram | Orbital Elements | Mission Design | Physical Parameters | Discovery Circumstances ]
ABOUT SSD CREDITS/AWARDS PRIVACY/COPYRIGHT GLOSSARY LINKS
FirstGov
(server date/time)  
NASA Home Page
Site Manager:   Ryan S. Park
Webmaster  Alan B. Chamberlin